RH
20 20 20 19 17 17 18 19 21 18 16 21 27 28 26 20 14 13 14 14 16 17 18 19 19 15 12 15 23 26 26 29 32 28 23 24 30 39 48 55 57 54 53 48 44 46 44 41 39 36 34 36 36 38 43 47 50 54 54 50 49 51 54 54 55 56 58 61 62 54 44 43 44 44 44 46 47 47 49 48 45 46 45 44 46 51
20 20 19 18 17 18 21 21 20 19 18 21 27 31 30 24 19 17 16 15 16 19 20 21 20 15 13 14 18 25 28 28 28 28 26 24 28 36 44 53 55 53 52 45 41 48 47 41 39 35 33 33 33 37 42 45 50 53 54 51 50 55 56 52 53 58 61 59 58 54 49 50 49 47 49 50 48 47 47 48 46 45 44 42 41 45
20 18 16 16 20 21 23 24 22 20 21 21 24 30 30 25 22 20 19 17 18 20 20 22 22 17 14 15 15 18 24 28 27 25 26 24 26 35 44 52 53 53 55 46 42 48 46 41 37 34 35 33 33 38 43 48 54 57 59 56 54 57 57 53 53 59 61 58 58 61 57 54 51 50 51 48 43 41 38 42 44 43 44 44 41 41
20 18 16 17 22 24 22 24 25 22 22 22 22 27 27 25 24 21 20 19 19 22 23 23 26 22 17 15 17 17 19 26 26 23 25 23 24 35 45 53 52 52 56 50 43 44 42 40 35 34 36 35 37 43 49 58 61 63 66 63 58 58 58 55 57 63 62 59 66 69 62 57 55 52 48 43 41 41 41 45 46 43 46 49 47 46
22 23 22 20 21 24 24 24 27 26 25 23 23 25 24 23 25 21 20 23 22 26 27 26 28 27 22 19 20 18 18 26 29 25 26 23 27 39 45 50 50 49 54 50 44 42 40 40 38 37 39 41 46 52 58 66 68 68 71 66 60 59 59 60 63 66 63 62 72 74 66 59 54 47 44 43 45 48 49 50 48 45 48 52 51 50
26 27 26 24 24 27 28 28 29 29 27 23 21 22 20 21 25 23 22 26 29 31 29 27 29 28 25 25 26 24 21 27 31 30 28 26 33 44 47 50 50 49 51 49 52 54 46 43 42 43 47 49 55 62 66 73 75 76 76 68 62 61 60 62 66 65 63 65 73 76 67 57 50 46 47 47 49 51 50 49 50 50 52 52 50 50
25 25 27 31 32 30 28 28 29 28 25 22 19 17 16 18 23 24 25 29 31 32 32 33 32 29 26 25 27 27 25 26 29 30 31 30 36 46 52 57 55 51 50 49 58 61 51 48 52 53 59 59 61 67 71 76 77 77 80 71 63 62 57 57 63 61 61 65 69 70 64 56 52 51 52 51 51 52 49 47 48 47 48 47 46 48
23 23 26 31 31 28 27 25 25 24 22 19 19 18 16 15 20 26 29 30 31 33 34 36 33 29 27 25 26 29 30 29 26 27 33 33 37 46 52 56 55 54 54 50 54 59 54 58 64 64 68 64 61 67 71 72 72 73 76 71 64 61 56 54 58 58 60 63 64 67 64 57 55 55 53 52 51 49 43 41 40 40 44 47 46 48
23 23 26 27 28 28 26 22 20 22 22 18 19 24 23 17 19 27 31 31 33 37 37 35 32 29 26 24 28 32 32 33 28 27 34 35 39 48 51 49 49 53 54 48 52 60 57 58 63 65 76 80 71 68 70 71 71 70 68 66 61 60 57 55 58 57 59 60 62 71 71 60 56 54 52 51 46 39 36 39 41 41 43 44 46 50
26 24 25 27 27 25 23 20 18 20 21 18 18 26 30 24 19 24 32 35 38 41 39 37 36 34 29 25 28 30 31 33 31 31 37 39 43 50 51 49 47 47 48 47 50 57 53 52 55 56 70 89 86 74 71 71 71 70 69 66 62 60 59 59 59 58 58 58 60 69 71 61 56 52 50 48 40 32 35 41 41 41 40 40 43 49
29 27 25 25 25 21 19 20 20 20 21 19 19 25 31 30 25 24 28 34 38 39 36 35 36 38 38 33 29 31 33 34 35 36 41 44 47 49 49 48 47 46 46 48 50 52 51 51 54 52 54 72 82 78 72 68 66 64 65 64 60 57 57 58 60 60 60 59 59 62 63 58 54 52 50 44 35 32 36 39 40 42 46 48 47 47
27 28 26 24 23 20 19 23 29 30 26 21 19 25 31 33 31 27 25 29 34 34 30 30 34 39 41 40 37 37 38 37 37 39 43 47 50 48 45 47 50 48 45 48 54 54 52 53 58 59 56 63 75 78 73 67 62 57 55 56 56 53 52 51 53 56 58 59 60 63 63 60 55 52 50 42 36 38 41 41 44 46 50 52 50 50
23 23 24 26 24 20 19 24 32 33 27 22 18 23 33 37 34 30 28 29 28 29 29 30 36 41 41 40 42 44 45 42 40 41 45 50 51 48 45 47 51 49 46 50 57 58 55 55 57 60 61 64 70 74 74 69 62 56 53 53 54 53 49 47 46 48 52 56 59 63 64 63 57 51 49 45 43 44 44 44 46 47 49 51 51 55
24 22 22 26 24 21 22 24 29 28 23 22 19 24 35 40 38 36 35 35 32 30 29 29 35 42 44 43 42 42 45 46 45 47 50 53 55 52 49 50 55 54 51 51 56 57 55 53 55 58 64 67 64 65 68 67 62 58 54 52 51 52 50 48 47 45 47 54 59 62 63 61 59 54 49 46 47 46 46 46 47 47 49 50 52 55
27 25 23 24 23 22 21 20 27 30 23 18 18 25 36 39 39 40 39 40 39 34 32 31 34 41 49 49 44 40 41 44 47 49 48 49 51 50 45 52 62 63 57 54 54 55 53 53 57 61 66 69 67 65 66 67 63 58 55 53 50 51 51 49 47 44 47 52 57 61 61 58 60 57 49 47 51 50 49 49 48 48 49 51 55 54
29 26 24 25 22 21 21 18 22 30 31 23 17 23 35 39 38 40 41 42 42 37 35 37 39 43 50 51 46 43 42 43 45 47 48 49 48 45 44 51 61 61 57 57 55 54 55 57 63 67 68 70 70 68 67 71 68 59 55 52 50 51 51 48 46 46 50 53 57 61 60 59 61 57 53 54 55 53 50 49 49 49 51 53 54 49
31 31 32 30 25 21 21 21 19 25 35 34 25 23 31 37 39 43 44 42 41 40 38 41 48 48 47 47 45 43 45 46 46 47 52 53 50 49 48 48 51 54 56 57 55 55 59 60 62 67 70 68 68 66 65 71 75 68 59 53 50 50 49 47 47 47 51 55 59 63 62 62 62 59 57 58 54 48 45 45 47 48 50 51 49 43
34 38 42 39 32 26 22 22 20 21 30 38 35 29 30 35 38 42 47 45 41 41 39 41 51 53 47 47 46 42 45 48 49 53 53 50 51 53 51 46 45 48 53 54 55 58 62 61 63 71 74 69 69 69 65 72 80 77 68 60 54 52 51 49 48 49 53 57 60 61 60 61 61 58 60 61 52 43 39 41 43 44 45 45 43 39
37 41 45 42 38 34 26 23 25 24 26 36 41 36 34 40 42 39 44 47 45 44 39 35 42 51 51 50 48 46 48 48 50 56 55 50 51 53 53 53 50 50 52 55 61 63 62 63 67 76 78 69 69 74 70 73 83 83 79 72 61 55 55 53 52 54 57 59 59 59 60 62 61 61 62 61 52 43 42 43 42 40 41 41 40 37
41 42 44 44 40 39 33 27 28 28 27 33 38 37 35 41 45 42 42 43 43 48 45 33 36 53 57 52 50 51 54 53 53 58 56 52 52 53 54 56 56 55 58 62 67 68 66 67 68 73 74 65 65 73 72 77 87 87 83 78 66 60 58 56 57 59 60 61 61 60 62 62 62 64 65 59 51 48 47 45 42 40 40 39 38 36
42 43 45 47 42 39 39 35 31 29 29 31 34 36 37 40 43 43 43 41 39 45 46 39 45 62 63 54 52 55 57 58 60 62 61 60 60 58 56 56 56 56 59 65 68 70 72 70 65 67 69 63 62 69 73 82 90 87 80 76 70 66 65 65 66 65 63 64 65 65 66 64 63 65 65 57 50 49 46 43 41 39 38 39 40 37
39 40 43 48 45 41 41 41 38 33 31 32 32 33 35 39 42 44 46 45 40 42 46 48 58 68 65 58 58 59 62 66 69 67 68 70 71 69 67 67 67 65 65 65 64 64 68 68 65 66 67 64 67 74 77 81 83 80 75 71 68 68 69 68 68 68 69 69 68 68 66 63 62 64 62 56 50 47 44 41 38 35 36 40 40 38
43 41 41 43 44 43 42 44 43 38 34 34 34 34 34 35 38 41 45 47 44 42 42 48 61 68 66 63 63 62 67 74 75 69 67 70 72 72 72 74 75 72 68 65 62 60 62 65 66 66 65 63 66 70 70 68 65 64 66 66 67 72 72 68 66 68 73 74 72 69 66 62 62 64 61 55 52 52 48 42 37 31 34 40 40 40
51 50 49 49 49 47 45 44 42 41 39 38 36 38 39 38 37 37 39 41 45 45 42 46 60 68 67 66 64 62 66 72 73 70 67 67 69 70 71 71 69 68 65 64 64 64 62 61 60 60 62 63 62 62 63 64 59 56 58 59 60 64 66 66 65 64 68 73 73 73 72 67 64 64 63 59 58 59 54 46 38 31 32 39 41 42
54 55 57 61 63 60 56 53 50 47 46 43 40 40 41 41 42 42 40 40 43 45 44 49 63 70 67 66 66 64 64 67 68 69 70 68 68 71 72 69 66 66 65 62 62 62 61 61 60 59 60 62 64 65 66 67 62 57 57 57 57 60 64 65 64 63 66 69 72 74 72 66 61 61 64 64 63 62 56 50 45 36 32 36 40 45
57 58 57 60 63 63 65 64 59 53 49 46 45 45 42 40 42 45 45 44 46 45 46 56 68 73 68 65 66 67 69 71 71 72 73 71 70 72 72 70 68 67 67 65 63 62 59 60 62 60 60 64 67 67 64 65 64 61 64 66 67 69 69 66 66 68 69 67 65 67 67 63 62 62 63 65 65 62 58 55 53 45 37 35 38 43
59 59 59 60 61 63 67 68 61 56 54 51 50 49 48 45 43 46 46 46 47 49 54 63 68 71 72 68 68 70 73 76 75 75 76 73 71 71 71 69 69 68 66 65 62 61 60 61 61 60 61 64 66 63 60 61 63 62 64 67 69 69 66 65 66 68 68 64 61 63 64 64 64 64 65 65 65 64 61 59 58 52 46 41 39 39
57 56 56 58 59 60 64 66 64 60 58 57 54 52 53 52 50 50 49 48 50 54 62 68 67 68 73 73 73 74 74 75 76 75 76 73 71 71 70 67 66 66 64 61 60 61 62 61 61 62 63 64 64 62 60 60 60 59 59 62 66 67 65 66 68 69 67 65 63 63 64 66 68 69 71 70 67 65 62 60 58 55 52 48 44 42
56 55 53 55 56 55 56 58 60 61 60 60 61 59 56 58 60 61 58 55 55 58 65 72 71 72 74 74 75 74 70 72 76 76 76 74 72 71 70 67 66 64 61 60 61 61 59 58 59 61 62 63 62 60 58 58 57 56 56 58 60 63 65 65 67 69 67 66 65 65 67 69 71 73 73 70 66 63 60 56 55 54 54 53 50 49
56 56 53 55 58 56 53 54 56 58 60 61 64 63 61 63 68 73 73 69 63 60 65 72 74 74 76 74 73 70 67 69 74 77 78 76 73 72 69 67 66 65 63 62 63 62 61 61 62 61 61 60 60 59 57 56 56 56 57 59 60 61 63 65 67 68 68 68 68 67 68 69 70 70 68 65 63 62 59 55 53 53 53 53 52 51
59 59 57 56 59 57 55 55 56 57 59 61 64 65 65 66 70 75 81 82 77 70 68 71 73 75 76 74 71 69 67 68 69 74 77 76 74 72 69 66 66 65 64 65 63 60 59 59 58 57 56 55 54 55 54 54 55 56 57 59 61 62 64 65 66 67 69 69 67 66 67 67 65 63 60 58 59 59 57 54 53 52 52 52 52 51
61 60 59 56 57 59 58 57 58 57 57 59 62 66 67 69 70 71 74 81 85 80 74 73 76 79 77 73 71 71 68 68 69 71 75 75 73 70 68 66 65 63 62 61 57 52 51 52 53 53 53 50 48 47 48 48 49 52 55 57 59 61 62 62 63 64 66 66 65 65 65 64 62 58 53 52 53 53 52 50 50 51 51 52 51 50
73 66 62 60 59 59 58 59 61 62 62 62 63 65 66 67 69 69 70 75 82 82 76 73 74 75 71 71 75 74 69 68 70 69 71 74 73 70 68 67 63 60 58 56 53 52 53 53 53 53 53 50 48 47 46 45 44 46 51 54 57 60 61 61 62 62 63 62 62 61 59 58 57 53 49 48 47 47 49 49 48 48 47 45 46 46
78 72 66 64 63 63 64 64 65 66 68 69 69 67 64 64 66 68 70 72 75 79 78 72 70 69 68 72 76 73 66 65 66 64 65 71 73 71 71 71 67 63 61 59 57 58 59 58 56 56 56 55 53 51 49 47 46 46 47 49 54 58 61 63 62 61 61 60 58 57 54 52 51 51 50 48 45 45 46 46 46 46 44 42 42 42
73 70 68 68 66 65 67 71 74 75 73 73 73 69 66 66 67 68 69 68 68 73 74 70 70 69 68 71 72 68 64 63 63 64 66 70 72 71 72 73 71 68 67 65 64 66 67 66 65 64 62 60 58 55 52 50 50 50 49 50 53 56 59 60 58 58 59 58 57 56 54 51 51 52 51 50 49 48 47 45 45 46 45 45 44 43
68 65 64 66 67 68 70 75 81 82 78 74 72 70 70 71 72 73 74 71 68 69 70 71 74 74 71 69 67 65 65 63 63 67 70 69 69 69 70 71 70 68 67 67 70 73 73 72 72 72 70 68 66 64 61 60 59 58 56 55 55 58 59 56 56 59 61 59 58 59 57 54 55 55 54 54 52 50 49 47 47 47 47 47 46 45
64 62 59 62 69 73 73 76 79 79 80 79 75 73 74 75 74 75 77 78 74 71 72 73 75 77 76 72 68 69 70 67 66 69 72 70 69 70 71 71 71 71 71 71 75 79 78 76 77 77 76 77 76 74 71 71 72 70 67 64 64 66 66 63 63 67 69 66 66 64 61 60 59 58 60 61 58 54 53 52 52 52 52 51 49 47
60 60 59 63 67 67 67 71 75 81 87 87 80 76 74 72 71 70 73 78 76 74 76 74 72 76 79 76 75 75 75 73 72 72 73 74 75 74 73 73 74 74 74 76 79 81 79 78 78 77 77 77 77 76 75 75 76 75 74 72 71 71 73 72 72 75 76 75 74 71 69 69 69 66 68 70 69 64 62 61 60 60 58 55 52 50
54 54 54 57 60 60 61 66 73 83 90 89 82 77 74 74 74 71 72 77 76 76 77 73 68 71 75 76 78 78 78 79 78 76 77 80 81 80 79 80 80 79 77 78 79 80 78 77 77 76 75 75 73 73 73 75 76 76 78 78 75 72 74 76 78 78 79 78 76 74 72 72 72 71 72 73 72 70 67 65 63 60 55 52 49 48
57 53 52 53 57 59 61 65 74 84 88 86 81 75 71 73 76 76 77 80 78 77 77 72 68 68 70 74 77 77 76 77 75 73 75 78 80 81 81 82 82 80 79 78 78 79 79 78 79 79 79 79 77 73 73 73 72 73 74 75 74 74 73 74 73 72 71 70 68 66 65 65 66 67 67 67 67 66 63 61 57 54 50 47 45 45
67 60 56 55 57 61 64 69 79 86 85 82 78 73 70 72 77 81 83 81 78 76 75 74 73 71 70 72 73 72 70 68 66 67 67 68 71 75 78 79 78 77 77 76 75 74 75 76 77 77 79 80 79 75 72 70 69 68 68 67 68 69 68 64 62 60 60 60 59 58 58 59 60 60 61 61 60 58 56 54 51 49 46 45 44 43
70 67 63 62 61 61 62 69 79 85 83 78 75 72 71 75 82 84 82 78 76 74 74 76 75 73 72 71 71 71 68 64 64 65 65 64 65 68 71 73 74 75 75 74 73 71 70 72 75 75 76 77 77 74 71 69 68 69 68 66 67 67 63 60 60 59 57 57 56 56 56 56 55 55 56 54 52 50 48 46 44 42 42 43 43 42
72 70 72 73 69 65 67 74 83 87 82 75 74 74 76 80 84 83 79 77 75 73 75 77 74 71 73 72 71 72 71 68 68 68 69 69 68 67 69 70 71 72 71 71 73 70 67 70 73 73 75 78 78 77 75 74 74 74 73 72 72 70 66 64 62 60 57 56 54 52 51 50 49 49 49 48 48 45 43 41 39 38 38 38 39 39
67 68 75 78 73 72 79 87 89 85 78 74 77 80 80 82 84 83 81 80 78 76 77 78 76 75 76 74 72 73 74 74 75 74 74 74 72 70 71 70 70 70 69 70 71 68 65 69 70 70 74 76 75 74 74 74 75 75 73 72 70 67 63 61 58 56 55 54 52 51 50 48 45 44 44 44 45 44 44 42 40 39 38 38 38 39
60 62 67 70 69 73 81 86 85 82 79 79 80 81 82 83 83 83 84 84 83 83 82 82 82 82 82 81 79 79 78 79 78 75 73 73 72 70 70 69 69 70 69 70 70 66 65 68 67 67 69 70 68 68 67 66 66 66 63 62 60 57 54 53 51 50 49 49 48 48 48 46 45 44 43 42 41 41 41 40 40 39 38 37 37 36
53 53 54 58 62 65 70 74 76 76 77 76 76 78 80 82 81 84 86 86 85 84 84 84 86 86 85 84 83 83 83 83 81 77 74 73 73 72 70 70 70 71 69 68 69 67 65 66 65 63 64 63 62 60 58 56 56 55 52 51 50 48 47 45 44 44 44 44 44 44 43 43 43 43 43 43 41 39 37 36 35 35 34 33 32 31
45 45 48 53 58 60 63 66 67 67 67 65 65 67 71 73 74 79 85 86 83 83 82 83 85 86 86 85 84 84 86 86 84 82 80 78 78 77 74 73 73 73 71 71 70 69 67 66 63 60 59 58 55 52 51 49 48 46 45 44 43 42 42 42 41 42 42 43 43 43 43 43 42 41 42 41 39 38 37 35 33 32 32 31 30 27
46 45 48 53 57 58 61 63 62 60 60 58 57 58 61 63 65 69 76 80 80 79 80 80 82 83 84 83 83 84 86 86 85 84 82 81 80 79 77 78 78 77 74 73 71 69 66 64 60 57 55 53 49 48 47 46 44 43 43 43 44 44 44 44 44 44 45 45 45 45 44 44 44 43 42 41 40 39 37 35 33 31 30 30 29 28
45 48 50 55 61 63 63 62 61 60 60 57 55 54 55 56 58 61 65 70 73 74 76 78 79 80 82 83 83 83 83 83 84 85 82 80 79 78 78 78 77 74 72 69 67 64 61 58 55 54 53 51 49 48 47 46 47 48 48 49 50 49 48 48 47 47 46 46 45 44 44 43 42 42 41 40 39 37 35 33 32 30 28 28 28 28
42 48 48 50 58 62 64 67 66 64 64 61 57 56 56 56 57 57 57 60 63 65 67 70 72 72 73 73 74 74 74 75 77 78 76 73 72 71 69 67 66 64 61 59 57 54 51 50 50 51 51 48 47 46 46 47 49 49 49 48 48 47 46 45 44 43 43 42 41 40 40 38 38 38 37 37 36 35 33 31 30 30 30 29 28 29
42 49 51 52 56 59 64 69 68 65 65 63 59 57 58 56 55 55 54 54 56 58 59 60 62 60 57 57 57 58 60 62 63 64 64 61 60 58 56 54 53 51 49 48 47 45 44 44 44 44 41 40 41 42 44 45 45 44 42 42 42 42 42 41 40 40 40 39 39 39 39 38 37 37 37 37 37 37 36 35 33 33 32 33 33 33